SCP
0 0 0 0 0 0 0 0 0 0 0 0 0 0 0 0 0 0 0 0 0 0 0 0 0 0 0 0 0 0 0 0 0 0 0 0 0 0 0 0 0 0 0 0 0
0 0 0 0 0 0 0 0 0 0 0 0 0 0 0 0 0 0 0 0 0 0 0 0 0 0 0 0 0 0 0 0 0 0 0 0 0 0 0 0 0 0 0 0 0
0 0 0 0 0 0 0 0 0 0 0 0 0 0 0 0 0 0 0 0 0 0 0 0 0 0 0 0 0 0 0 0 0 0 0 0 0 0 0 0 0 0 0 0 0
0 0 0 0 0 0 0 0 0 0 0 0 0 0 0 0 0 0 0 0 0 0 0 0 0 0 0 0 0 0 0 0 0 0 0 0 0 0 0 0 0 0 0 0 0
0 0 0 0 0 0 0 0 0 0 0 0 0 0 0 0 0 0 0 0 0 0 0 0 0 0 0 0 0 0 0 0 0 0 0 0 0 0 0 0 0 0 0 0 0
0 0 0 0 0 0 0 0 0 0 0 0 0 0 0 0 0 0 0 0 0 0 0 0 0 0 0 0 0 0 0 0 0 0 0 0 0 0 0 0 0 0 0 0 0
0 0 0 0 0 0 0 -0 0 0 0 0 0 0 0 0 0 0 0 0 0 0 0 0 0 0 0 0 0 0 0 0 0 0 0 0 0 -0 0 0 0 0 0 0 0
0 0 0 0 0 0 0 0 0 0 0 0 0 0 0 0 0 0 0 0 0 0 0 0 0 0 0 0 0 0 0 0 0 0 0 0 0 0 0 0 0 0 0 0 0
0 0 0 0 0 0 0 0 0 -0 0 0 0 0 0 0 0 0 0 0 0 0 0 0 0 0 0 0 0 0 0 0 0 0 0 0 0 0 0 0 0 0 0 0 0
0 0 0 0 0 0 0 0 0 0 0 0 0 0 0 0 0 0 0 0 0 0 0 0 0 0 0 0 0 0 0 0 0 0 0 0 0 0 0 0 0 0 0 0 0
0 0 0 0 0 0 0 0 0 0 0 0 0 0 0 0 0 0 0 0 0 0 0 0 0 0 0 0 0 0 0 0 0 0 0 0 0 0 0 0 0 0 0 0 0
0 0 0 0 0 0 0 0 0 0 0 -0 0 0 0 0 0 0 0 0 0 0 0 0 0 0 0 0 0 0 0 0 0 0 0 0 0 0 0 0 0 0 0 0 0
0 0 0 0 0 0 0 0 0 0 0 0 0 0 0 0 0 0 0 0 0 0 0 0 0 0 0 0 0 0 0 0 0 0 0 0 0 0 0 0 0 0 0 0 0
0 0 0 0 0 0 0 0 0 0 0 0 0 0 0 0 0 0 0 0 0 0 0 0 0 0 0 0 0 0 0 0 0 0 0 0 -0 0 0 0 0 0 0 0 0
0 0 0 0 0 0 0 0 0 0 0 0 0 0 0 0 0 0 0 0 0 0 0 0 0 0 0 0 0 0 0 0 0 0 0 0 0 -0 0 0 0 0 0 0 0
0 0 0 0 0 0 0 0 0 0 0 0 0 0 0 0 0 0 0 0 0 0 0 0 0 0 0 0 0 0 0 0 0 0 0 0 0 -0 0 0 0 0 0 0 0
0 0 0 0 0 0 0 0 0 0 0 0 0 0 0 0 0 0 0 0 0 0 0 0 0 0 0 0 0 0 0 0 0 0 0 0 0 0 0 0 0 0 0 0 0
0 0 0 0 0 0 0 0 0 0 0 0 0 0 0 0 0 0 0 0 0 0 0 0 0 0 0 0 0 0 0 0 0 0 0 0 0 0 0 0 0 0 0 0 0
0 0 0 0 0 0 0 0 0 0 0 0 0 0 0 0 0 0 0 0 0 0 0 0 0 0 0 0 0 0 0 0 0 0 0 0 0 0 0 0 0 0 0 0 0
0 0 0 0 0 0 0 0 0 0 0 0 0 0 0 0 0 0 0 0 0 0 0 0 0 0 0 0 0 0 0 0 0 0 0 0 0 0 0 0 0 0 0 0 0
0 0 0 0 0 0 0 0 0 0 0 0 0 0 0 0 0 0 0 0 0 0 0 0 0 0 0 0 0 0 0 0 0 0 0 0 0 0 0 0 0 0 0 0 0
0 0 0 0 0 0 0 0 0 0 0 0 0 0 0 0 0 0 0 0 0 0 0 0 0 0 0 0 0 0 0 0 0 0 0 0 0 0 0 0 0 0 0 0 0
-0 0 0 0 0 0 0 0 0 0 0 0 0 0 0 0 0 0 0 0 0 0 0 0 0 0 0 0 0 0 0 0 0 0 0 0 0 0 0 0 0 0 0 0 0
0 0 0 0 0 0 0 0 0 0 0 0 0 0 0 0 0 0 0 0 0 0 0 0 0 0 0 0 0 0 0 0 0 0 0 0 0 0 0 0 0 0 0 0 0
0 0 0 0 0 0 0 0 0 0 0 0 0 0 0 0 0 -0 0 0 0 0 0 0 0 0 0 0 0 0 0 0 0 0 0 0 0 0 0 0 0 0 0 0 0
0 0 0 0 0 0 0 0 0 0 0 0 0 0 0 0 0 0 0 -0 0 0 0 0 0 0 0 0 0 0 0 0 0 0 0 0 0 0 0 0 0 0 0 0 0
0 0 0 0 0 0 0 0 0 0 0 0 0 0 0 0 0 0 0 0 -0 0 0 0 0 0 0 0 0 0 0 0 0 0 0 0 0 0 0 0 0 0 0 0 0
Wind_Speed_500mb
43 57 59 53 54 47 41 40 35 32 32 30 34 34 35 34 32 34 42 32 29 24 23 34 34 29 33 27 19 11 3 8 10 13 10 10 9 9 7 9 16 18 16 12 9
34 33 36 46 59 54 56 48 43 41 30 32 30 29 39 40 43 46 38 32 30 35 34 43 42 35 21 20 18 13 9 19 13 9 7 8 11 11 9 10 14 24 31 26 19
34 34 33 30 35 56 49 48 52 49 43 22 26 26 30 37 43 14 11 26 43 39 45 36 38 40 16 17 19 14 12 11 9 21 9 6 8 10 11 10 28 26 29 32 31
42 38 37 34 30 35 44 43 49 52 47 49 22 30 29 22 12 10 14 17 40 40 43 43 41 28 15 12 18 7 19 11 4 14 11 8 5 8 28 19 7 18 22 23 32
46 48 42 38 29 31 35 47 40 50 55 46 38 40 29 27 42 45 42 26 36 43 48 47 51 27 14 16 14 7 7 16 25 11 17 11 15 15 28 38 42 36 34 31 33
45 48 50 45 41 39 35 33 48 49 52 48 45 50 41 38 45 45 27 19 29 41 47 45 30 32 16 11 17 17 24 7 9 28 23 10 7 8 12 27 51 56 56 51 47
50 48 49 52 49 46 41 41 41 37 58 56 49 48 59 63 33 18 17 19 21 32 46 51 42 34 14 5 21 10 4 4 16 13 10 15 14 30 48 52 50 41 43 41 43
56 53 50 52 54 52 45 42 42 36 39 47 39 43 48 40 72 79 50 32 24 25 42 40 46 28 12 6 7 9 5 6 7 17 10 19 24 13 13 41 54 46 43 39 43
43 50 65 61 57 51 51 43 40 34 32 44 46 31 32 18 57 78 68 64 48 34 38 35 31 25 13 11 2 8 8 9 13 26 9 14 13 12 16 22 28 28 31 29 27
51 49 47 49 56 53 55 44 43 35 29 32 34 21 46 27 55 44 62 69 51 29 26 32 21 10 7 13 23 10 9 8 11 10 9 9 19 26 32 15 25 27 30 33 37
48 50 48 53 47 53 52 42 27 16 42 34 23 43 6 22 27 57 48 52 45 31 16 21 12 39 39 18 13 12 10 13 8 9 10 16 18 31 20 17 36 56 62 56 53
49 50 48 49 48 44 54 60 53 9 11 52 69 59 63 7 18 41 41 39 33 22 13 7 44 14 17 15 15 10 10 8 6 7 10 9 23 21 17 19 48 59 66 67 63
56 54 52 47 49 50 59 65 48 50 9 19 58 70 72 55 21 35 54 48 22 23 31 32 6 22 24 16 25 14 24 10 8 2 6 9 17 12 20 22 47 65 68 72 74
59 55 46 43 44 57 63 63 62 41 8 11 19 30 51 67 27 50 67 46 16 40 19 22 12 28 19 30 28 33 15 13 8 3 10 1 18 10 10 15 12 41 54 72 73
58 53 47 43 49 44 52 47 55 29 10 13 17 9 30 53 23 50 58 50 30 22 17 19 17 15 21 14 26 13 18 19 9 5 4 6 8 11 4 11 19 18 50 35 33
58 51 44 47 53 67 43 52 54 10 14 11 19 22 21 59 12 20 52 38 24 18 21 21 15 22 27 12 28 16 15 12 9 6 16 16 13 9 11 11 16 3 7 10 13
60 57 49 49 60 55 52 56 10 12 6 10 15 18 38 34 44 12 41 38 24 21 21 2 10 9 11 13 7 10 22 3 1 3 17 8 17 25 10 16 14 16 19 23 25
55 53 68 51 65 55 73 12 17 10 15 5 9 14 31 31 29 21 36 45 33 18 18 26 19 23 12 14 19 19 24 11 17 10 10 2 16 12 16 24 31 28 24 17 16
59 52 61 62 73 72 57 22 19 16 15 12 8 19 22 24 11 28 32 48 47 39 25 25 19 8 24 12 34 14 24 21 11 6 6 11 13 16 18 20 14 16 12 11 10
53 53 55 68 65 90 24 23 11 7 6 13 18 12 15 25 20 26 27 34 41 34 8 12 11 14 13 10 8 26 27 12 7 14 10 9 8 9 9 13 9 9 10 10 9
47 18 41 79 85 41 21 13 10 12 9 9 11 5 11 14 29 15 7 16 48 36 24 10 8 4 16 20 31 12 19 6 11 8 16 8 11 13 11 7 13 8 12 9 5
25 12 73 100 14 9 10 12 10 12 9 6 5 4 5 7 15 22 27 24 24 19 40 14 7 7 25 3 3 36 22 43 20 19 7 4 10 1 10 11 16 16 18 14 11
16 14 78 91 16 19 1 5 6 7 8 11 9 9 5 4 6 13 17 20 15 27 28 30 11 10 6 1 4 14 20 39 20 7 14 19 12 2 6 8 10 15 15 14 11
26 10 16 26 12 28 15 11 11 5 9 9 6 7 4 4 3 7 5 8 17 20 48 25 21 29 22 31 12 18 25 30 40 21 19 22 11 10 13 14 13 15 12 9 9
25 6 15 15 5 21 8 12 11 11 5 13 6 11 11 5 3 9 10 7 4 11 17 15 21 35 35 10 12 25 29 18 24 37 28 23 16 16 23 24 24 24 14 9 7
23 18 18 19 33 21 22 9 13 7 12 7 7 13 15 12 13 7 5 4 10 8 8 15 10 10 3 3 14 10 31 27 28 24 32 14 15 13 25 17 24 32 24 17 10
36 52 32 30 23 11 11 13 11 16 1 10 12 7 5 15 19 27 24 12 8 8 16 17 12 8 31 11 10 11 23 29 22 24 31 22 33 14 8 17 35 39 32 19 11
Wind_Direction_500mb
269 265 268 263 263 269 278 282 281 289 280 284 299 303 304 301 294 279 264 260 251 227 212 206 198 194 184 187 186 171 92 221 224 164 243 174 182 192 206 214 200 204 225 217 211
300 299 291 277 264 269 269 266 272 270 289 267 274 287 298 301 301 281 274 256 241 229 216 205 199 188 180 182 189 175 177 211 204 203 226 197 193 193 179 202 240 232 231 237 231
286 289 296 306 300 260 267 261 255 264 270 297 262 276 284 298 311 286 270 242 230 223 213 214 207 185 189 180 188 190 217 205 235 215 224 199 216 213 184 223 222 223 238 232 232
277 274 276 285 303 278 260 270 256 251 261 263 269 270 273 288 260 186 348 283 219 207 201 199 197 180 169 194 194 199 231 196 259 212 184 200 213 230 214 241 235 236 243 239 234
275 272 270 274 272 290 298 259 271 251 252 257 263 265 277 263 249 259 298 321 197 198 201 197 190 189 182 190 157 216 224 222 228 217 226 221 229 244 251 248 252 257 254 251 246
266 269 271 267 266 264 266 282 270 261 256 257 262 256 265 256 264 271 279 270 209 203 202 201 210 198 201 208 182 213 217 216 229 234 239 222 245 232 237 239 246 247 255 259 256
273 263 268 265 270 266 267 268 278 305 255 255 266 266 262 248 251 273 245 215 211 216 213 213 219 197 200 183 220 200 178 215 225 216 238 201 274 237 242 250 257 250 258 260 257
267 268 266 269 275 269 264 266 266 280 262 254 259 263 261 259 247 251 244 229 236 242 225 223 221 225 217 168 67 150 97 187 248 157 231 162 258 272 265 238 250 256 258 262 254
271 269 266 264 270 268 261 260 263 267 272 257 253 266 266 257 244 245 241 251 256 259 237 227 214 212 179 130 65 349 178 188 282 193 146 189 257 259 231 241 249 251 258 262 268
271 275 276 268 262 267 262 250 254 252 249 263 256 276 249 253 228 236 232 236 246 245 217 210 192 173 162 170 206 175 192 215 212 210 176 205 255 271 257 261 268 262 256 265 266
270 275 275 264 267 257 253 224 207 211 216 197 212 212 239 254 231 230 230 221 204 201 176 194 194 207 196 202 190 171 185 187 216 216 166 227 248 259 256 245 264 269 272 271 266
269 271 270 267 263 258 250 228 211 211 189 228 242 249 240 62 225 216 211 182 190 199 136 159 227 201 174 185 177 167 179 209 273 154 176 267 257 251 253 240 251 257 267 267 267
268 269 267 265 258 259 247 244 227 222 230 233 235 234 230 248 245 214 192 187 197 192 194 206 210 161 174 177 191 197 203 171 199 162 235 308 270 225 255 223 249 254 256 261 262
260 262 266 265 255 251 247 244 243 210 239 221 205 248 217 227 231 220 203 178 186 206 168 234 206 191 178 199 184 213 162 167 169 136 244 167 282 281 251 272 232 253 250 250 256
262 261 256 256 242 236 248 241 215 183 217 203 174 215 210 182 155 211 207 194 189 164 166 212 156 153 208 193 179 203 154 177 149 167 334 206 292 267 212 275 260 247 249 262 262
260 261 260 252 247 244 248 221 182 205 225 185 149 180 158 200 231 152 184 204 208 177 197 208 192 180 198 164 180 134 89 61 56 93 258 197 185 225 174 210 256 186 217 235 290
257 261 248 252 237 232 206 167 206 210 293 210 176 188 190 191 214 195 181 192 184 182 194 54 179 188 149 113 117 147 146 125 209 194 240 307 197 251 247 249 222 243 257 286 293
259 262 250 248 231 209 192 184 219 183 204 162 155 169 193 196 209 220 187 194 209 183 171 188 209 176 179 172 162 185 178 170 189 193 205 142 229 239 230 252 267 260 271 276 259
258 254 262 241 226 203 183 205 194 201 182 150 119 180 189 194 185 210 210 205 200 189 184 192 227 138 175 154 154 197 205 190 102 41 108 209 285 287 251 263 250 252 238 246 247
255 257 249 229 216 190 181 199 216 226 109 163 188 174 178 184 192 189 206 206 216 213 217 201 196 196 169 115 222 181 181 173 214 166 223 252 269 230 248 243 213 210 220 220 228
252 244 234 205 188 177 190 199 191 190 156 142 193 146 217 172 194 192 188 247 209 211 212 184 155 174 136 198 183 174 183 184 186 165 209 239 251 216 217 213 178 127 127 154 176
274 217 176 177 148 183 187 190 150 154 166 106 95 103 195 204 197 207 206 199 214 192 205 213 153 152 199 17 20 210 191 193 202 197 211 148 255 264 248 170 145 139 116 117 113
216 167 169 174 155 173 180 185 133 142 129 157 166 168 122 319 247 197 224 223 172 187 200 197 204 178 130 49 20 201 203 200 192 107 197 212 240 77 155 168 169 139 123 114 107
181 169 133 176 132 158 146 174 147 103 113 140 136 112 101 240 154 276 308 252 219 193 217 188 224 220 211 209 156 187 189 191 201 210 201 205 194 206 210 198 203 183 153 141 134
186 157 163 160 157 151 135 143 141 155 104 138 143 180 178 171 182 219 241 218 292 257 224 198 205 223 232 242 162 200 207 183 202 212 213 222 205 208 200 197 198 188 174 174 175
145 141 87 141 126 127 168 200 148 146 142 141 160 199 214 172 186 269 56 144 230 208 210 168 249 132 210 105 177 206 207 192 206 215 216 208 233 207 209 171 196 201 188 193 190
134 140 123 148 156 123 188 152 151 121 173 150 180 176 246 222 234 241 234 197 264 258 207 185 161 170 223 156 127 230 200 192 207 215 201 201 225 151 174 195 205 201 195 198 214
Wind_Speed_850mb
43 57 59 53 54 47 41 40 35 32 32 30 34 34 35 34 32 34 42 32 29 24 23 34 34 29 33 27 19 11 3 8 10 13 10 10 9 9 7 9 16 18 16 12 9
34 33 36 46 59 54 56 48 43 41 30 32 30 29 39 40 43 46 38 32 30 35 34 43 42 35 21 20 18 13 9 19 13 9 7 8 11 11 9 10 14 24 31 26 19
34 34 33 30 35 56 49 48 52 49 43 22 26 26 30 37 43 14 11 26 43 39 45 36 38 40 16 17 19 14 12 11 9 21 9 6 8 10 11 10 28 26 29 32 31
42 38 37 34 30 35 44 43 49 52 47 49 22 30 29 22 12 10 14 17 40 40 43 43 41 28 15 12 18 7 19 11 4 14 11 8 5 8 28 19 7 18 22 23 32
46 48 42 38 29 31 35 47 40 50 55 46 38 40 29 27 42 45 42 26 36 43 48 47 51 27 14 16 14 7 7 16 25 11 17 11 15 15 28 38 42 36 34 31 33
45 48 50 45 41 39 35 33 48 49 52 48 45 50 41 38 45 45 27 19 29 41 47 45 30 32 16 11 17 17 24 7 9 28 23 10 7 8 12 27 51 56 56 51 47
50 48 49 52 49 46 41 41 41 37 58 56 49 48 59 63 33 18 17 19 21 32 46 51 42 34 14 5 21 10 4 4 16 13 10 15 14 30 48 52 50 41 43 41 43
56 53 50 52 54 52 45 42 42 36 39 47 39 43 48 40 72 79 50 32 24 25 42 40 46 28 12 6 7 9 5 6 7 17 10 19 24 13 13 41 54 46 43 39 43
43 50 65 61 57 51 51 43 40 34 32 44 46 31 32 18 57 78 68 64 48 34 38 35 31 25 13 11 2 8 8 9 13 26 9 14 13 12 16 22 28 28 31 29 27
51 49 47 49 56 53 55 44 43 35 29 32 34 21 46 27 55 44 62 69 51 29 26 32 21 10 7 13 23 10 9 8 11 10 9 9 19 26 32 15 25 27 30 33 37
48 50 48 53 47 53 52 42 27 16 42 34 23 43 6 22 27 57 48 52 45 31 16 21 12 39 39 18 13 12 10 13 8 9 10 16 18 31 20 17 36 56 62 56 53
49 50 48 49 48 44 54 60 53 9 11 52 69 59 63 7 18 41 41 39 33 22 13 7 44 14 17 15 15 10 10 8 6 7 10 9 23 21 17 19 48 59 66 67 63
56 54 52 47 49 50 59 65 48 50 9 19 58 70 72 55 21 35 54 48 22 23 31 32 6 22 24 16 25 14 24 10 8 2 6 9 17 12 20 22 47 65 68 72 74
59 55 46 43 44 57 63 63 62 41 8 11 19 30 51 67 27 50 67 46 16 40 19 22 12 28 19 30 28 33 15 13 8 3 10 1 18 10 10 15 12 41 54 72 73
58 53 47 43 49 44 52 47 55 29 10 13 17 9 30 53 23 50 58 50 30 22 17 19 17 15 21 14 26 13 18 19 9 5 4 6 8 11 4 11 19 18 50 35 33
58 51 44 47 53 67 43 52 54 10 14 11 19 22 21 59 12 20 52 38 24 18 21 21 15 22 27 12 28 16 15 12 9 6 16 16 13 9 11 11 16 3 7 10 13
60 57 49 49 60 55 52 56 10 12 6 10 15 18 38 34 44 12 41 38 24 21 21 2 10 9 11 13 7 10 22 3 1 3 17 8 17 25 10 16 14 16 19 23 25
55 53 68 51 65 55 73 12 17 10 15 5 9 14 31 31 29 21 36 45 33 18 18 26 19 23 12 14 19 19 24 11 17 10 10 2 16 12 16 24 31 28 24 17 16
59 52 61 62 73 72 57 22 19 16 15 12 8 19 22 24 11 28 32 48 47 39 25 25 19 8 24 12 34 14 24 21 11 6 6 11 13 16 18 20 14 16 12 11 10
53 53 55 68 65 90 24 23 11 7 6 13 18 12 15 25 20 26 27 34 41 34 8 12 11 14 13 10 8 26 27 12 7 14 10 9 8 9 9 13 9 9 10 10 9
47 18 41 79 85 41 21 13 10 12 9 9 11 5 11 14 29 15 7 16 48 36 24 10 8 4 16 20 31 12 19 6 11 8 16 8 11 13 11 7 13 8 12 9 5
25 12 73 100 14 9 10 12 10 12 9 6 5 4 5 7 15 22 27 24 24 19 40 14 7 7 25 3 3 36 22 43 20 19 7 4 10 1 10 11 16 16 18 14 11
16 14 78 91 16 19 1 5 6 7 8 11 9 9 5 4 6 13 17 20 15 27 28 30 11 10 6 1 4 14 20 39 20 7 14 19 12 2 6 8 10 15 15 14 11
26 10 16 26 12 28 15 11 11 5 9 9 6 7 4 4 3 7 5 8 17 20 48 25 21 29 22 31 12 18 25 30 40 21 19 22 11 10 13 14 13 15 12 9 9
25 6 15 15 5 21 8 12 11 11 5 13 6 11 11 5 3 9 10 7 4 11 17 15 21 35 35 10 12 25 29 18 24 37 28 23 16 16 23 24 24 24 14 9 7
23 18 18 19 33 21 22 9 13 7 12 7 7 13 15 12 13 7 5 4 10 8 8 15 10 10 3 3 14 10 31 27 28 24 32 14 15 13 25 17 24 32 24 17 10
36 52 32 30 23 11 11 13 11 16 1 10 12 7 5 15 19 27 24 12 8 8 16 17 12 8 31 11 10 11 23 29 22 24 31 22 33 14 8 17 35 39 32 19 11
Wind_Direction_850mb
269 265 268 263 263 269 278 282 281 289 280 284 299 303 304 301 294 279 264 260 251 227 212 206 198 194 184 187 186 171 92 221 224 164 243 174 182 192 206 214 200 204 225 217 211
300 299 291 277 264 269 269 266 272 270 289 267 274 287 298 301 301 281 274 256 241 229 216 205 199 188 180 182 189 175 177 211 204 203 226 197 193 193 179 202 240 232 231 237 231
286 289 296 306 300 260 267 261 255 264 270 297 262 276 284 298 311 286 270 242 230 223 213 214 207 185 189 180 188 190 217 205 235 215 224 199 216 213 184 223 222 223 238 232 232
277 274 276 285 303 278 260 270 256 251 261 263 269 270 273 288 260 186 348 283 219 207 201 199 197 180 169 194 194 199 231 196 259 212 184 200 213 230 214 241 235 236 243 239 234
275 272 270 274 272 290 298 259 271 251 252 257 263 265 277 263 249 259 298 321 197 198 201 197 190 189 182 190 157 216 224 222 228 217 226 221 229 244 251 248 252 257 254 251 246
266 269 271 267 266 264 266 282 270 261 256 257 262 256 265 256 264 271 279 270 209 203 202 201 210 198 201 208 182 213 217 216 229 234 239 222 245 232 237 239 246 247 255 259 256
273 263 268 265 270 266 267 268 278 305 255 255 266 266 262 248 251 273 245 215 211 216 213 213 219 197 200 183 220 200 178 215 225 216 238 201 274 237 242 250 257 250 258 260 257
267 268 266 269 275 269 264 266 266 280 262 254 259 263 261 259 247 251 244 229 236 242 225 223 221 225 217 168 67 150 97 187 248 157 231 162 258 272 265 238 250 256 258 262 254
271 269 266 264 270 268 261 260 263 267 272 257 253 266 266 257 244 245 241 251 256 259 237 227 214 212 179 130 65 349 178 188 282 193 146 189 257 259 231 241 249 251 258 262 268
271 275 276 268 262 267 262 250 254 252 249 263 256 276 249 253 228 236 232 236 246 245 217 210 192 173 162 170 206 175 192 215 212 210 176 205 255 271 257 261 268 262 256 265 266
270 275 275 264 267 257 253 224 207 211 216 197 212 212 239 254 231 230 230 221 204 201 176 194 194 207 196 202 190 171 185 187 216 216 166 227 248 259 256 245 264 269 272 271 266
269 271 270 267 263 258 250 228 211 211 189 228 242 249 240 62 225 216 211 182 190 199 136 159 227 201 174 185 177 167 179 209 273 154 176 267 257 251 253 240 251 257 267 267 267
268 269 267 265 258 259 247 244 227 222 230 233 235 234 230 248 245 214 192 187 197 192 194 206 210 161 174 177 191 197 203 171 199 162 235 308 270 225 255 223 249 254 256 261 262
260 262 266 265 255 251 247 244 243 210 239 221 205 248 217 227 231 220 203 178 186 206 168 234 206 191 178 199 184 213 162 167 169 136 244 167 282 281 251 272 232 253 250 250 256
262 261 256 256 242 236 248 241 215 183 217 203 174 215 210 182 155 211 207 194 189 164 166 212 156 153 208 193 179 203 154 177 149 167 334 206 292 267 212 275 260 247 249 262 262
260 261 260 252 247 244 248 221 182 205 225 185 149 180 158 200 231 152 184 204 208 177 197 208 192 180 198 164 180 134 89 61 56 93 258 197 185 225 174 210 256 186 217 235 290
257 261 248 252 237 232 206 167 206 210 293 210 176 188 190 191 214 195 181 192 184 182 194 54 179 188 149 113 117 147 146 125 209 194 240 307 197 251 247 249 222 243 257 286 293
259 262 250 248 231 209 192 184 219 183 204 162 155 169 193 196 209 220 187 194 209 183 171 188 209 176 179 172 162 185 178 170 189 193 205 142 229 239 230 252 267 260 271 276 259
258 254 262 241 226 203 183 205 194 201 182 150 119 180 189 194 185 210 210 205 200 189 184 192 227 138 175 154 154 197 205 190 102 41 108 209 285 287 251 263 250 252 238 246 247
255 257 249 229 216 190 181 199 216 226 109 163 188 174 178 184 192 189 206 206 216 213 217 201 196 196 169 115 222 181 181 173 214 166 223 252 269 230 248 243 213 210 220 220 228
252 244 234 205 188 177 190 199 191 190 156 142 193 146 217 172 194 192 188 247 209 211 212 184 155 174 136 198 183 174 183 184 186 165 209 239 251 216 217 213 178 127 127 154 176
274 217 176 177 148 183 187 190 150 154 166 106 95 103 195 204 197 207 206 199 214 192 205 213 153 152 199 17 20 210 191 193 202 197 211 148 255 264 248 170 145 139 116 117 113
216 167 169 174 155 173 180 185 133 142 129 157 166 168 122 319 247 197 224 223 172 187 200 197 204 178 130 49 20 201 203 200 192 107 197 212 240 77 155 168 169 139 123 114 107
181 169 133 176 132 158 146 174 147 103 113 140 136 112 101 240 154 276 308 252 219 193 217 188 224 220 211 209 156 187 189 191 201 210 201 205 194 206 210 198 203 183 153 141 134
186 157 163 160 157 151 135 143 141 155 104 138 143 180 178 171 182 219 241 218 292 257 224 198 205 223 232 242 162 200 207 183 202 212 213 222 205 208 200 197 198 188 174 174 175
145 141 87 141 126 127 168 200 148 146 142 141 160 199 214 172 186 269 56 144 230 208 210 168 249 132 210 105 177 206 207 192 206 215 216 208 233 207 209 171 196 201 188 193 190
134 140 123 148 156 123 188 152 151 121 173 150 180 176 246 222 234 241 234 197 264 258 207 185 161 170 223 156 127 230 200 192 207 215 201 201 225 151 174 195 205 201 195 198 214